EHI
0 0 0 0 0 0 0 0 0 0 0 0 0 0 0 0 0 0 0 0 0 0 0 0 0 0 0 0 0 0 0 0 0 0 0 0 0 0
0 0 0 0 0 0 0 0 0 0 0 0 0 0 0 0 0 0 0 0 0 0 0 0 0 0 0 0 0 0 0 0 0 0 0 0 0 0
0 0 0 0 0 0 0 0 0 0 0 0 0 0 0 0 0 0 0 0 0 0 0 0 0 0 0 0 0 0 0 0 0 0 0 0 0 0
0 0 0 0 0 0 0 0 0 0 0 0 0 0 0 0 0 0 0 0 0 0 0 0 0 0 0 0 0 0 0 0 0 0 0 0 0 0
0 0 0 0 0 0 0 0 0 0 0 0 0 0 0 0 0 0 0 0 0 0 0 0 0 0 0 0 0 0 0 0 0 0 0 0 0 0
0 0 0 0 0 0 0 0 0 0 0 0 0 0 0 0 0 0 0 0 0 0 0 0 0 0 0 0 0 0 0 0 0 0 0 0 0 0
0 0 0 0 0 0 0 0 0 0 0 0 0 0 0 0 0 0 0 0 0 0 0 0 0 0 0 0 0 0 0 0 0 0 0 0 0 0
0 0 0 0 0 0 0 0 0 0 0 0 0 0 0 0 0 0 0 0 0 0 0 0 0 0 0 0 0 0 0 0 0 0 0 0 0 0
0 0 0 0 0 0 0 0 0 0 0 0 0 0 0 0 0 0 0 0 0 0 0 0 0 0 0 0 0 0 0 0 0 0 0 0 0 0
0 0 0 0 0 0 0 0 0 0 0 0 0 0 0 0 0 0 0 0 0 0 0 0 0 0 0 0 0 0 0 0 0 0 0 0 0 0
0 0 0 0 0 0 0 0 0 0 0 0 0 0 0 0 0 0 0 0 0 0 0 0 0 0 0 0 0 0 0 0 0 0 0 0 0 0
0 0 0 0 0 0 0 0 0 0 0 0 0 0 0 0 0 0 0 0 0 0 0 0 0 0 0 0 0 0 0 0 0 0 0 0 0 0
0 0 0 0 0 0 0 0 0 0 0 0 0 0 0 0 0 0 0 0 0 0 0 0 0 0 0 0 0 0 0 0 0 0 0 0 0 0
0 0 0 0 0 0 0 0 0 0 0 0 0 0 0 0 0 0 0 0 0 0 0 0 0 0 0 0 0 0 0 0 0 0 0 0 0 0
0 0 0 0 0 0 0 0 0 0 0 0 0 0 0 0 0 0 0 0 0 0 0 0 0 0 0 0 0 0 0 0 0 0 0 0 0 0
0 0 0 0 0 0 0 0 0 0 0 0 0 0 0 0 0 0 0 0 0 0 0 0 0 0 0 0 0 0 0 0 0 0 0 0 0 0
0 0 0 0 0 0 0 0 0 0 0 0 0 0 0 0 0 0 0 0 0 0 0 0 0 0 0 0 0 0 0 0 0 0 0 0 0 0
0 0 0 0 0 0 0 0 0 0 0 0 0 0 0 0 0 0 0 0 0 0 0 0 0 0 0 0 0 0 0 0 0 0 0 0 0 0
0 0 0 0 0 0 0 0 0 0 0 0 0 0 0 0 0 0 0 0 0 0 0 0 0 0 0 0 0 0 0 0 0 0 0 0 0 0
0 0 0 0 0 0 0 0 0 0 0 0 0 0 0 0 0 0 0 0 0 0 0 0 0 0 0 0 0 0 0 0 0 0 0 0 0 0
0 0 0 0 0 0 0 0 0 0 0 0 0 0 0 0 0 0 0 0 0 0 0 0 0 0 0 0 0 0 0 0 0 0 0 0 0 0
0 0 0 0 0 0 0 0 0 0 0 0 0 0 0 0 0 0 0 0 0 0 0 0 0 0 0 0 0 0 0 0 0 0 0 0 0 0
0 0 0 0 0 0 0 0 0 0 0 0 0 0 0 0 0 0 0 0 0 0 0 0 0 0 0 0 0 0 0 0 0 0 0 0 0 0
Wind_Speed
3 3 2 2 2 2 2 4 5 4 3 2 1 1 1 0 1 1 2 3 3 4 4 5 5 5 5 5 6 7 7 7 7 8 8 9 9 9
2 3 2 1 2 2 3 2 2 3 3 2 2 1 1 1 2 1 2 3 3 4 5 5 4 4 5 6 6 7 7 7 8 9 9 9 9 10
3 4 3 2 2 2 2 2 2 2 2 1 1 1 1 1 2 1 1 2 2 4 5 5 5 5 5 6 7 7 8 8 8 9 9 10 10 10
4 4 4 3 3 3 3 3 3 3 3 3 2 1 2 2 1 1 2 2 2 4 4 5 6 6 6 6 7 7 8 8 8 9 9 10 10 11
5 5 5 5 4 3 4 4 3 2 2 3 2 1 1 1 1 1 2 1 2 3 4 4 6 7 7 7 7 7 7 8 8 8 9 9 10 11
5 5 5 6 6 5 5 5 4 3 3 3 2 2 1 2 1 1 2 1 2 3 3 4 5 6 7 7 8 8 7 7 7 8 9 9 10 10
4 5 5 6 7 6 5 5 5 4 3 3 3 2 2 2 3 2 2 2 2 2 1 2 3 3 3 6 7 7 7 7 8 8 9 10 10 11
5 4 4 5 7 8 8 8 7 6 6 5 4 5 5 4 2 2 2 1 2 1 1 3 2 3 3 2 6 7 7 8 8 9 9 10 11 11
5 4 4 4 4 4 5 6 6 7 8 6 6 6 6 5 5 4 3 3 3 2 1 3 2 3 3 4 7 7 7 7 8 9 10 11 11 12
4 5 5 4 4 4 4 4 4 4 5 5 5 5 5 5 6 5 4 2 2 2 2 3 2 3 4 3 6 6 7 8 9 10 10 12 12 12
4 4 5 5 7 7 5 5 4 3 4 5 6 6 7 7 5 3 3 2 2 2 1 2 2 3 3 3 3 6 7 9 10 11 11 12 13 12
2 3 5 6 7 8 5 5 5 4 3 3 3 3 3 4 5 4 4 3 2 3 2 1 1 1 3 2 2 2 4 7 9 11 12 12 13 7
3 3 3 7 8 8 7 5 6 4 4 3 2 2 2 2 3 2 3 3 3 4 3 2 2 2 3 4 3 3 3 3 4 6 8 11 12 9
3 2 3 6 7 8 6 5 6 4 3 3 2 2 2 2 2 2 2 2 2 3 3 3 2 3 3 4 4 3 3 3 4 5 4 8 9 11
3 4 5 6 6 5 6 6 4 3 3 3 3 2 2 2 1 1 1 1 1 2 2 2 3 3 3 4 5 4 4 4 3 3 4 5 5 5
2 4 5 5 4 4 3 3 2 3 3 3 2 2 1 1 2 1 1 1 1 1 1 2 3 3 4 5 5 6 4 4 3 4 5 5 5 5
2 1 2 2 2 2 2 2 2 2 2 2 2 2 2 2 2 2 2 1 2 2 2 2 2 2 4 5 5 6 5 5 5 4 5 6 6 5
3 2 3 3 3 3 3 3 2 3 3 3 3 3 3 3 2 2 2 2 2 3 3 2 1 2 3 4 6 6 5 5 5 5 5 6 8 6
2 2 2 3 3 3 3 3 3 3 3 3 3 3 3 3 3 3 3 3 3 3 3 2 2 2 4 5 4 4 5 5 5 5 5 6 8 8
1 2 2 2 2 2 3 3 2 2 3 3 3 3 3 3 3 3 3 3 3 3 3 3 3 3 5 5 5 5 7 6 5 6 6 6 7 10
1 1 1 2 2 2 2 2 2 3 3 3 3 3 3 3 3 3 3 5 4 3 4 4 4 5 3 2 4 5 5 7 8 7 6 7 7 7
1 1 2 2 2 2 2 2 2 3 3 3 3 3 3 3 4 4 4 4 4 4 4 4 3 3 3 4 6 7 7 6 8 11 12 11 7 6
2 2 2 2 2 2 2 3 3 3 3 3 3 3 3 3 3 4 4 4 4 4 4 4 3 3 4 4 5 6 8 8 6 6 7 10 14 16
Wind_Direction
183 177 179 186 170 162 150 154 157 179 215 212 211 232 258 279 306 326 326 325 335 338 336 335 338 342 342 343 341 338 336 334 332 324 321 321 321 321
183 176 185 191 175 167 162 164 163 167 198 204 209 236 233 280 284 297 288 314 321 334 335 332 325 330 332 332 330 330 329 329 325 323 318 314 315 315
192 189 197 188 182 179 169 168 165 152 188 233 203 216 204 240 287 289 282 276 289 314 318 328 330 333 332 327 324 324 323 321 319 319 320 318 316 316
199 195 203 195 195 190 180 184 184 174 170 197 212 206 227 223 233 265 292 301 302 304 315 322 325 324 328 327 327 326 324 322 321 319 318 321 321 321
199 201 203 194 203 201 192 192 189 182 165 173 206 207 221 218 228 268 287 298 304 304 308 314 315 318 318 319 319 320 322 323 322 321 321 320 319 318
202 206 205 202 205 203 201 194 185 176 168 171 188 198 204 210 195 226 282 292 300 303 304 313 315 317 315 312 311 311 312 315 320 323 323 323 323 321
204 210 213 212 213 212 211 197 186 184 184 189 198 198 203 196 211 210 251 288 291 273 299 300 304 302 307 307 308 307 308 316 321 322 323 325 326 323
208 213 215 216 221 226 226 218 204 196 196 199 211 210 214 210 206 213 220 247 269 249 279 292 287 285 290 287 306 309 310 315 319 322 322 324 325 324
208 208 219 219 221 213 223 228 225 222 214 211 211 214 209 202 196 210 219 226 245 245 252 274 272 278 284 297 308 313 317 322 327 326 325 326 325 323
212 209 209 208 211 209 201 210 220 226 223 219 217 216 215 204 202 208 215 232 270 255 226 259 271 277 295 295 306 316 323 326 325 322 322 323 323 324
216 211 207 206 213 215 206 204 218 230 236 229 229 228 224 222 211 180 186 210 260 256 220 233 266 297 294 284 298 316 319 318 318 320 321 321 322 322
213 211 215 216 218 215 206 199 211 217 205 215 222 228 219 214 216 203 190 204 230 252 220 215 251 308 299 283 294 309 309 310 318 320 320 322 323 321
214 213 215 222 227 227 223 212 217 210 190 192 196 197 195 201 208 213 206 206 215 239 220 205 232 252 263 289 295 294 297 307 316 313 317 320 321 323
219 220 220 227 231 229 225 223 217 202 177 181 193 201 201 207 210 208 208 220 234 242 223 215 229 235 255 277 280 283 292 296 300 303 307 315 314 315
229 229 235 232 231 226 227 218 198 183 174 184 197 204 200 197 185 180 178 203 254 250 240 238 236 239 244 257 267 273 290 288 282 289 299 301 299 303
238 235 234 234 237 231 218 206 196 191 190 197 194 190 176 182 196 194 207 203 258 282 267 247 237 239 253 257 260 267 266 267 275 282 289 289 288 285
219 200 190 195 206 205 188 187 184 180 189 180 181 191 201 209 218 209 214 218 239 252 267 265 257 256 255 255 259 260 265 267 269 280 288 290 287 282
205 195 200 204 210 211 201 196 197 197 196 196 196 201 210 213 219 224 225 220 237 248 255 259 265 294 295 277 247 254 258 266 272 275 277 284 288 286
190 192 205 208 210 208 204 202 210 205 198 199 203 203 207 212 215 220 224 230 241 249 251 247 240 243 270 282 277 248 259 271 278 278 275 275 280 286
189 201 211 211 211 209 204 200 199 196 195 197 199 201 201 205 215 222 222 224 237 249 255 250 241 236 243 266 277 282 273 269 272 278 283 282 278 282
214 223 224 218 215 212 210 207 201 203 202 201 205 205 204 204 217 222 224 234 242 244 250 258 259 266 267 266 273 276 275 275 274 274 282 287 290 289
236 240 239 228 219 214 211 209 207 209 208 209 210 210 210 213 219 223 226 229 236 243 255 266 267 268 253 250 261 276 287 292 287 284 276 268 271 276
257 250 244 233 224 216 212 213 216 221 219 215 215 215 214 219 224 227 231 234 238 243 253 263 268 265 258 254 261 272 280 288 294 296 287 285 281 279